Retour au catalogue

STARLINK-6204

ActifCommunicationsVLEO
NORAD 56488·PAYLOAD·🇺🇸 United States

Lancé May 10, 2023 depuis Vandenberg Space Force Base

Loading…

Prochains Passages (prochaines 24 heures)

TLE

FraisSource: CelesTrak SupGP

Époque: Sep 15, 2026, 02:18 UTC

1 56488C 23064AS  26258.09631944  .00069982  00000+0  58658-2 0  2580
2 56488  70.0018 346.9958 0003387 267.9422   8.2186 14.98287362    12

Suivez STARLINK-6204 en temps réel avec AllMySat

Download on the App Store